User: anonymous   Login
Location: Unspecified
(0.0000°N, 0.0000°E)
Time: 03:38:39
(UTC+00:00)
Language:

AEHF 1 (USA 214) - Orbit

View from above orbital plane
View from above orbital plane
View from above satellite
View from above satellite

Ground track
Ground track

The orbit data is extracted from the following two-line orbital elements,

1 36868U 10039A   17149.78534722 0.00000000  00000-0  00000-0 0    07
2 36868   0.5240 163.7360 0002770 275.0780  95.3904  1.00270000    05
Epoch (UTC): 29 May 2017 18:50:54
Eccentricity: 0.0002770
inclination: 0.5240°
perigee height: 35775 km
apogee height: 35798 km
right ascension of ascending node: 163.7360°
argument of perigee: 275.0780°
revolutions per day: 1.00270000
mean anomaly at epoch: 95.3904°
orbit number at epoch: 0

The dashed part of the orbit path shows where the satellite is in the earth's shadow,  

DLR